Regional Weather Roundup
Issued by NWS

Home | Current Version | Previous Version | Text Only | Print | Product List | Glossary Off
Versions: 1 2 3 4 5 6 7 8 9 10 11 12 13 14 15 16 17 18 19 20 21 22 23 24 25 26 27 28 29 30 31 32 33 34 35 36 37 38 39 40 41 42 43 44 45 46 47 48 49 50

000
ASUS45 KBOI 010110
RWRID
WEATHER ROUNDUP FOR IDAHO
NATIONAL WEATHER SERVICE BOISE ID
700 PM MDT SUN AUG 31 2014

NOTE: "FAIR" INDICATES FEW OR NO CLOUDS BELOW 12000 FEET
WITH NO SIGNIFICANT WEATHER AND/OR OBSTRUCTIONS TO VISIBILITY

IDZ012-014-010200-
SOUTHWEST IDAHO


CITY           SKY/WX    TMP DP  RH WIND       PRES   REMARKS
BOISE          SUNNY     73  41  31 N10       29.96S
CALDWELL       SUNNY     73  43  33 NE9       29.97F
MOUNTAIN HOME  SUNNY     74  39  28 N8        29.95S
$$

IDZ016-017-010200-
SOUTHCENTRAL IDAHO


CITY           SKY/WX    TMP DP  RH WIND       PRES   REMARKS
BURLEY         FAIR      67  36  31 W7        29.99F
JEROME         SUNNY     67  42  40 W9        29.99F
TWIN FALLS     SUNNY     70  42  36 NW8       30.00S
$$

IDZ019>023-010200-
SOUTHEAST IDAHO


CITY           SKY/WX    TMP DP  RH WIND       PRES   REMARKS
IDAHO FALLS    MOSUNNY   67  39  35 S21       30.00F
POCATELLO      MOSUNNY   68  33  27 SW17G23   30.01F
REXBURG        SUNNY     63  43  48 S14       29.99F
$$

IDZ006-010-011-018-031-032-010200-
CENTRAL IDAHO MOUNTAINS


CITY           SKY/WX    TMP DP  RH WIND       PRES   REMARKS
MCCALL         MOSUNNY   61  35  37 SW7       30.03R
HAILEY         MOSUNNY   66  39  37 S16       29.99F
STANLEY          N/A     62  29  28 VRB5      30.06R
SALMON         MOSUNNY   66  45  45 CALM      29.89F
CHALLIS        SUNNY     70  31  23 CALM      29.94S
$$

IDZ002-004-006-007-026-010200-
NORTHERN IDAHO


CITY           SKY/WX    TMP DP  RH WIND       PRES   REMARKS
LEWISTON       MOSUNNY   73  39  29 NW6       29.93F
LOWELL           N/A     71  50  47 VRB6      29.93R
COEUR D`ALENE  PTSUNNY   68  39  34 W14       29.94S
MULLAN PASS    CLOUDY    45  40  82 VRB7G17   30.05S
$$



USA.gov is the U.S. government's official web portal to all federal, state and local government web resources and services.